Погода Петропавловск-Камч.

Хотите узнать прогноз погоды Петропавловск-Камч.? Тогда Вам сюда: Погода Петропавловск-Камч.

Поиск расширенной информации на нашем сайте:

Полезная информация:

Новости сайта



02.01.2020
Опубликован Долгосрочный прогноз погоды по городам России и ближнего зарубежья на январь 2020 года.
Карты: Прогноз на январь и февраль 2020 года, Сравнение прогнозируемой аномалии приземной температуры воздуха на январь 2020 года по разным моделям.




Погода Петропавловск-Камч. - сегодня

Время (UTC), дата Ветер
(°,м/с) 
Видим.   Явления Облачность Т
(°С)
Тd
(°С)
f(%) Тe
(°С)
Pmin
(гПа)
dP
(гПа)
Po
(мм)
O2
(г/м3)
Тmin Tmax R s Состояние
почвы
15 09.08.20 120 (ЮВ) 20000 м    10/10 600 м 
[Sc]
+11.9 +8.3 79 +13  1003.6  1.8  751  288           
18 09.08.20 тихо ()   20000 м    10/10 600 м 
[Sc]
+11.5 +9.2 86 +12  1005.1  1.5  752  289           
21 09.08.20 тихо ()   20000 м    10/10 600 м 
[Sc]
+12.4 +9.8 84 +13  1007  1.9  753  288  +11.3         
00 10.08.20 тихо ()   20000 м    10/8 600 м средняя 
[Sc|Ac und]
+15.7 +10.8 73 +18  1008.4  1.4  754  285           
03 10.08.20 130 (ЮВ) 20000 м    10/10 600 м 
[Sc]
+14.7 +9.3 70 +15  1009.5  1.2  755  287           
06 10.08.20 140 (ЮВ) 20000 м    10/10 600 м 
[Sc]
+13.2 +10.1 81 +14  1009.7  0.2  755  288           
09 10.08.20 120 (ЮВ) 20000 м  в посл. час ливневой дождь  10/6 300 м средняя 
[Sc|Ac As]
+12.3 +9.2 81 +12  1010.8  1.1  756  290    +15.8  0.0     
12 10.08.20 130 (ЮВ) 20000 м  в посл. час ливневой дождь  9/6 600 м средняя 
[Sc|Ac trans]
+11.5 +8.3 81 +12  1011.7  0.9  757  291           
15 10.08.20 010 (С) 20000 м    8/5 300 м средняя, верхняя 
[Sc|Ac trans|Ci fib]
+11.8 +9.1 84 +12  1011.9  0.2  757  291           
18 10.08.20 360 (С) 20000 м    5/3 200 м средняя, верхняя 
[St|Ac trans|Ci fib]
+11.1 +9.5 90 +11  1012.4  0.5  757  291           
21 10.08.20 320 (СЗ) 20000 м  туман на расстоянии  1/0 верхняя 
[Ci fib]
+14 +10.8 81 +16  1013.1  0.7  758  288  +11.1    0.0     
00 11.08.20 200 (Ю) 20000 м    3/1 600 м верхняя 
[Sc|Ci fib]
+16.5 +11.3 71 +21  1013.7  0.6  758  286           
03 11.08.20 150 (ЮВ) 20000 м    1/1 600 м 
[Sc]
+17 +11.3 69 +21  1014.2  0.5  758  286           
06 11.08.20 150 (ЮВ) 20000 м    4/4 300 м 
[Sc]
+14.8 +10.7 76 +17  1014.7  0.5  759  288           
09 11.08.20 130 (ЮВ) 10 км  туман на расстоянии  8/6 300 м верхняя 
[St|Ci fib]
+12.3 +10 86 +14  1015  0.3  759  291    +19.4       
12 11.08.20 140 (ЮВ) 10 км    10/10 300 м 
[St]
+11.3 +9.4 88 +12  1015.7  0.7  760  292           
15 11.08.20 090 (В) 10 км    10/10 300 м 
[St]
+11 +9 87 +12  1015.4  -0.3  759  293           
18 11.08.20 тихо ()   10 км    10/10 200 м 
[St]
+11.3 +8.9 85 +11  1014.5  -0.9  759  292           
21 11.08.20 130 (ЮВ) 10 км    10/10 200 м 
[St]
+11.8 +8.9 82 +12  1013.8  -0.7  758  291  +11         
00 12.08.20 130 (ЮВ) 10 км    10/10 300 м 
[Sc]
+11.9 +8.8 81 +12  1013.1  -0.7  758  291           
03 12.08.20 130 (ЮВ) 10 км    10/10 300 м 
[Sc]
+12.7 +8.9 78 +13  1011.2  -1.9  756  290           
06 12.08.20 140 (ЮВ) 2000 м  слаб. ливневой дождь  10/10 100 м кучево-дожд. 
[Cb cap]
+10.7 +9.1 90 +10  1010.2  -1  755  291           
09 12.08.20 140 (ЮВ) 10 км  слаб. ливневой дождь  10/10 300 м кучево-дожд. 
[Cb cap]
+10.4 +8.1 86 +10  1009.8  -0.4  755  292    +12.8     
12 12.08.20 130 (ЮВ) 10 км  слаб. ливневой дождь  10/10 200 м кучево-дожд. 
[Cb cap]
+10.3 +8.2 87 +10  1008.6  -1.2  754  291           
15 12.08.20 120 (ЮВ) 5-11{11}  4000 м  слаб. ливневой дождь  10/10 100 м кучево-дожд. 
[Cb cap]
+10.1 +8.2 88 +9  1006.6  -2  753  291           
Время (UTC), дата Ветер
(°,м/с) 
Видим.   Явления Облачность Т
(°С)
Тd
(°С)
f(%) Тe
(°С)
Pmin
(гПа)
dP
(гПа)
Po
(мм)
O2
(г/м3)
Тmin Tmax R s Состояние
почвы

Для получения пояснительной информации подведите курсор к названию столбца.

ПОГОДА Петропавловск-Камч. - архив

Всё, что Вы хотите узнать о погоде Петропавловск-Камч. - удобно и подробно!

Выберите нужную дату (начиная с 1 января 2019* года) и нажмите кнопку "Найти".
Будут отображены архивные сводки погоды по пункту Петропавловск-Камч., начиная с указанной даты.


Отображать данные в формате CSV (для использования в таблицах Excel)


Внимание! Наш архив погоды предназначен исключительно для личного некоммерческого использования в познавательных целях. Если Вам необходимы официальные справки о состоянии погоды (для производственных, юридических, коммерческих и т.п. целей), обращайтесь в органы Росгидромета.

*Примечание: данная дата относится к архиву по метеостанциям СССР (Россия, СНГ, Балтия).
Архив по метеостанциям Зарубежной Европы и Азии (кроме Китая) хранится 10 дней, по другим регионам земного шара (Китай, Африка, Америка, Австралия, Океания) - 1 день.

Петропавловск-Камч. - район местоположения метеостанции


Название, широта, долгота, высота метеостанции:
Петропавловск-Камч. (обсерватория) 53°ш. 158.6°д. 24 м над ур. моря [Российская Федерация]

Дополнительная информация

В oтличие oт бoльшинства пoгoдных сайтoв мы публикуем пoдрoбную метеoинфoрмацию в детальнoм прoфессиoнальнoм фoрмате.

Характеристики температуры и влажнoсти вoздуха измеряются на высoте 2 м в тени вдали oт зданий и деревьев.
Скoрoсть ветра измеряется на высoте 10 м (на урoвне рoста челoвека скoрoсть ветра ниже в 1.5-2 раза). Если метеoстанция нахoдится в гoрoде или в лесу, тo скoрoсть ветра занижена на 2-4 м/с пo сравнению с oткрытым местoм. Скoрoсть ветра над акватoриями крупных рек и oзёр, а также на вершинах хoлмoв на 2-5 м/с выше, чем в oбычных услoвиях.
Атмoсфернoе давление в разных тoчках местнoсти мoжет значительнo oтличаться oт давления на метеoстанции, в зависимoсти oт услoвий рельефа (при пoдъёме на 10 м давление пoнижается примернo на 1 мм рт.ст.).